Location: Dos Palmas
(32.4468°N, 116.8732°W)
Time: 01:50:37
(UTC+00:00)

Cosmos 2263 - Pass Details

Date: 20 June 2021
Orbit: 831 x 865 km, 70.9° (Epoch: 27 July)

Event Time Altitude Azimuth Distance (km) Brightness Sun altitude
Rises 09:15:14 0° 338° (NNW) 3,407 8.0 -30.5°
Reaches altitude 10° 09:17:41 10° 338° (NNW) 2,464 7.1 -30.3°
Enters shadow 09:22:17 60° 329° (NNW) 951 4.5 -29.9°
